EW4022 Weather Reports


Display with metric or nautical units.
time (UTC)temp
F
wind
direction
speed
MPH
gust
MPH
rain 1hr
in
rain 24hr
in
rain mn
in
humidity
%
barometer
mb
20260502130551 51 5 0.0 2.0 0.00 0.00 0.00 54 975.0
20260502123550 50 5 0.0 2.0 0.00 0.00 0.00 55 974.9
20260502123100 50 5 1.0 3.0 0.00 0.00 0.00 55 974.9
20260502122550 50 5 1.0 3.0 0.00 0.00 0.00 55 975.0
20260502122050 50 5 0.0 3.0 0.00 0.00 0.00 57 975.0
20260502121550 49 5 0.0 3.0 0.00 0.00 0.00 57 975.0
20260502121050 49 5 0.0 3.0 0.00 0.00 0.00 57 974.9
20260502120548 49 5 0.0 3.0 0.00 0.00 0.00 57 974.9
20260502115551 49 5 0.0 2.0 0.00 0.00 0.00 57 974.8
20260502115051 49 271 0.0 3.0 0.00 0.00 0.00 57 974.7
20260502114549 49 271 1.0 3.0 0.00 0.00 0.00 57 974.8
20260502114047 49 271 1.0 2.0 0.00 0.00 0.00 57 974.7
20260502113550 49 271 0.0 2.0 0.00 0.00 0.00 57 974.5
20260502113050 49 271 0.0 1.0 0.00 0.00 0.00 58 974.4
20260502112545 49 271 0.0 1.0 0.00 0.00 0.00 59 974.4
20260502112045 48 271 0.0 1.0 0.00 0.00 0.00 57 974.5
20260502111547 48 271 0.0 0.0 0.00 0.00 0.00 59 974.6
20260502111045 48 271 0.0 0.0 0.00 0.00 0.00 58 974.5
20260502110545 48 271 0.0 0.0 0.00 0.00 0.00 61 974.6
20260502110055 48 271 0.0 2.0 0.00 0.00 0.00 60 974.5
20260502105547 49 271 0.0 2.0 0.00 0.00 0.00 57 974.4
20260502105044 49 271 0.0 4.0 0.00 0.00 0.00 57 974.4
20260502104549 49 271 1.0 6.0 0.00 0.00 0.00 55 974.4
20260502104043 48 275 1.0 4.0 0.00 0.00 0.00 55 974.4
20260502103542 49 273 0.0 2.0 0.00 0.00 0.00 58 974.5
20260502103047 49 273 0.0 2.0 0.00 0.00 0.00 56 974.5
20260502102543 49 273 0.0 2.0 0.00 0.00 0.00 55 974.6
20260502102041 49 273 0.0 2.0 0.00 0.00 0.00 55 974.5
20260502101602 49 273 0.0 3.0 0.00 0.00 0.00 54 974.5
20260502101039 50 273 1.0 3.0 0.00 0.00 0.00 54 974.6
20260502100539 50 273 0.0 4.0 0.00 0.00 0.00 53 974.6
20260502091034 50 225 1.0 6.0 0.00 0.00 0.00 56 974.2
20260502090534 50 22 0.0 3.0 0.00 0.00 0.00 61 974.3
20260502071524 52 229 0.0 3.0 0.00 0.00 0.00 67 973.9
20260502071026 52 229 0.0 5.0 0.00 0.00 0.00 67 973.9
20260502070524 52 5 1.0 6.0 0.00 0.00 0.00 66 974.1
20260502070031 52 230 0.0 5.0 0.00 0.00 0.00 66 974.1
20260502065623 52 13 0.0 3.0 0.00 0.00 0.00 66 974.0
20260502065022 52 13 0.0 4.0 0.00 0.00 0.00 66 974.1
20260502064522 52 22 1.0 4.0 0.00 0.00 0.00 66 974.0
20260502064021 52 22 1.0 5.0 0.00 0.00 0.00 66 974.0
20260502063521 52 24 0.0 7.0 0.00 0.00 0.00 66 974.1
20260502063025 52 271 1.0 7.0 0.00 0.00 0.00 66 974.1
20260502062523 53 275 0.0 2.0 0.00 0.00 0.00 66 974.2
20260502062024 53 275 0.0 3.0 0.00 0.00 0.00 65 974.1
20260502061520 53 275 1.0 6.0 0.00 0.00 0.00 65 974.3
20260502061019 53 275 1.0 6.0 0.00 0.00 0.00 65 974.3
20260502060519 53 270 0.0 4.0 0.00 0.00 0.00 65 974.2
20260502060018 53 360 0.0 2.0 0.00 0.00 0.00 65 974.3
20260502055524 53 360 0.0 2.0 0.00 0.00 0.00 64 974.4
20260502055016 53 360 0.0 3.0 0.00 0.00 0.00 64 974.2
20260502054515 53 360 1.0 3.0 0.00 0.00 0.00 64 974.1
20260502054014 54 360 0.0 4.0 0.00 0.00 0.00 63 974.1
20260502053514 54 31 0.0 4.0 0.00 0.00 0.00 63 974.1
20260502053014 54 31 1.0 4.0 0.00 0.00 0.00 63 974.2
20260502052520 54 50 1.0 5.0 0.00 0.00 0.00 62 974.1
20260502052013 54 11 0.0 4.0 0.00 0.00 0.00 62 974.2
20260502051522 54 19 0.0 4.0 0.00 0.00 0.00 62 974.1
20260502051011 55 19 2.0 4.0 0.00 0.00 0.00 62 974.2
20260502050510 55 34 1.0 4.0 0.00 0.00 0.00 62 974.1
20260502050011 55 35 0.0 5.0 0.00 0.00 0.00 62 974.2
20260502045511 55 36 1.0 5.0 0.00 0.00 0.00 62 974.2
20260502045009 55 207 1.0 9.0 0.00 0.00 0.00 62 974.1
20260502044510 55 10 2.0 9.0 0.00 0.00 0.00 62 974.1
20260502044006 56 23 1.0 4.0 0.00 0.00 0.00 63 974.1
20260502043505 56 23 1.0 3.0 0.00 0.00 0.00 63 974.0
20260502043012 56 24 0.0 5.0 0.00 0.00 0.00 62 973.9
20260502042505 56 5 3.0 6.0 0.00 0.00 0.00 63 973.9
20260502042004 57 245 2.0 7.0 0.00 0.00 0.00 63 973.9
20260502041503 57 255 1.0 4.0 0.00 0.00 0.00 63 973.8
20260502041002 57 270 1.0 4.0 0.00 0.00 0.00 63 973.8
20260502040502 57 270 1.0 5.0 0.00 0.00 0.00 63 973.9
20260502040100 57 270 2.0 8.0 0.00 0.00 0.00 62 973.7
20260502035600 57 5 3.0 8.0 0.00 0.00 0.00 62 973.6
20260502035103 57 271 3.0 9.0 0.00 0.00 0.00 62 973.7
20260502034600 57 223 1.0 11.0 0.00 0.00 0.00 63 973.7
20260502034100 57 68 1.0 11.0 0.00 0.00 0.00 62 973.5
20260502033600 58 271 7.0 13.0 0.00 0.00 0.00 62 973.5
20260502033105 58 126 3.0 8.0 0.00 0.00 0.00 62 973.5
20260502032559 58 40 2.0 8.0 0.00 0.00 0.00 62 973.5
20260502032059 58 241 1.0 7.0 0.00 0.00 0.00 62 973.2
20260502031603 58 221 1.0 8.0 0.00 0.00 0.00 62 973.2
20260502031059 58 216 3.0 8.0 0.00 0.00 0.00 61 973.2
20260502030559 58 21 1.0 6.0 0.00 0.00 0.00 61 973.1
20260502025557 59 360 2.0 6.0 0.00 0.00 0.00 60 973.0
20260502025057 59 31 2.0 6.0 0.00 0.00 0.00 59 972.9
20260502024557 59 254 2.0 6.0 0.00 0.00 0.00 59 973.0
20260502024057 59 224 2.0 6.0 0.00 0.00 0.00 58 973.0
20260502023557 60 57 2.0 6.0 0.00 0.00 0.00 58 973.0
20260502023110 60 35 1.0 6.0 0.00 0.00 0.00 57 972.9
20260502022556 60 261 0.0 5.0 0.00 0.00 0.00 58 972.8
20260502022056 59 193 0.0 5.0 0.00 0.00 0.00 58 972.7
20260502021559 59 250 0.0 3.0 0.00 0.00 0.00 60 972.5
20260502021057 58 251 0.0 5.0 0.00 0.00 0.00 63 972.4
20260502020556 58 246 0.0 5.0 0.00 0.00 0.00 65 972.1
20260502020056 58 215 0.0 1.0 0.00 0.00 0.00 69 971.9
20260502015556 58 215 0.0 3.0 0.00 0.00 0.00 69 971.9
20260502015058 58 215 1.0 3.0 0.00 0.00 0.00 69 971.9
20260502014555 59 215 0.0 3.0 0.00 0.00 0.00 69 971.9
20260502014058 59 215 1.0 3.0 0.00 0.00 0.00 68 971.8
20260502013555 59 215 1.0 4.0 0.00 0.00 0.00 67 971.8
20260502013055 59 215 1.0 6.0 0.00 0.00 0.00 67 971.8
20260502012555 59 215 3.0 6.0 0.00 0.00 0.00 67 971.7
20260502012055 60 210 1.0 5.0 0.00 0.00 0.00 65 971.6
20260502011558 60 210 3.0 5.0 0.00 0.00 0.00 64 971.4
20260502011055 60 211 1.0 4.0 0.00 0.00 0.00 63 971.3
20260502010557 60 211 2.0 3.0 0.00 0.00 0.00 62 971.3
20260502010054 61 211 0.0 6.0 0.00 0.00 0.00 62 971.2
20260502005554 61 213 1.0 6.0 0.00 0.00 0.00 61 971.1
20260502005056 61 221 1.0 4.0 0.00 0.00 0.00 61 970.9
20260502004609 62 221 1.0 2.0 0.00 0.00 0.00 61 970.9
20260502004053 62 221 0.0 2.0 0.00 0.00 0.00 60 970.7
20260502003554 62 221 0.0 3.0 0.00 0.00 0.00 60 970.8
20260502003053 62 221 0.0 3.0 0.00 0.00 0.00 58 970.6
20260502002553 63 213 0.0 3.0 0.00 0.00 0.00 60 970.6
20260502002053 63 213 0.0 4.0 0.00 0.00 0.00 58 970.5
20260502001553 63 213 2.0 4.0 0.00 0.00 0.00 57 970.4
20260502001052 63 223 0.0 4.0 0.00 0.00 0.00 57 970.3
20260502000552 64 223 0.0 4.0 0.00 0.00 0.00 57 970.4
20260502000052 64 223 1.0 2.0 0.00 0.00 0.00 56 970.2
20260501235552 64 223 0.0 4.0 0.00 0.00 0.00 56 970.1
20260501235052 64 223 2.0 5.0 0.00 0.00 0.00 55 969.9
20260501234552 65 27 2.0 4.0 0.00 0.00 0.00 55 969.8
20260501234052 65 28 0.0 2.0 0.00 0.00 0.00 55 969.8
20260501233552 66 28 0.0 3.0 0.00 0.00 0.00 53 969.9
20260501233052 66 28 0.0 3.0 0.00 0.00 0.00 52 969.7
20260501232553 67 28 0.0 4.0 0.00 0.00 0.00 52 969.6
20260501232051 67 28 1.0 5.0 0.00 0.00 0.00 48 969.6
20260501231559 68 15 0.0 3.0 0.00 0.00 0.00 48 969.6
20260501231051 68 16 1.0 6.0 0.00 0.00 0.00 47 969.5
20260501230551 68 9 1.0 4.0 0.00 0.00 0.00 46 969.6
20260501230050 68 9 0.0 4.0 0.00 0.00 0.00 50 969.5
20260501225551 68 9 0.0 5.0 0.00 0.00 0.00 47 969.5
20260501225051 68 269 1.0 6.0 0.00 0.00 0.00 46 969.5
20260501224552 68 270 2.0 6.0 0.00 0.00 0.00 47 969.6
20260501224049 68 17 2.0 5.0 0.00 0.00 0.00 47 969.5
20260501223551 68 62 2.0 5.0 0.00 0.00 0.00 48 969.5
20260501223107 68 5 0.0 8.0 0.00 0.00 0.00 50 969.6
20260501222549 68 271 3.0 8.0 0.00 0.00 0.00 47 969.6
20260501222049 68 51 2.0 5.0 0.00 0.00 0.00 47 969.6
20260501221548 68 26 2.0 10.0 0.00 0.00 0.00 46 969.7
20260501221048 68 13 3.0 10.0 0.00 0.00 0.00 48 969.7
20260501220547 68 30 2.0 8.0 0.00 0.00 0.00 46 969.8
20260501220047 68 16 1.0 6.0 0.00 0.00 0.00 47 969.8
20260501215547 67 270 1.0 6.0 0.00 0.00 0.00 48 969.8
20260501215046 67 25 1.0 6.0 0.00 0.00 0.00 48 969.8
20260501214546 67 49 2.0 6.0 0.00 0.00 0.00 46 969.9
20260501214046 67 17 2.0 6.0 0.00 0.00 0.00 49 970.0
20260501213544 67 40 1.0 8.0 0.00 0.00 0.00 47 970.0
20260501213048 67 81 2.0 9.0 0.00 0.00 0.00 48 970.1
20260501212544 68 15 4.0 9.0 0.00 0.00 0.00 47 970.1
20260501212043 68 44 3.0 8.0 0.00 0.00 0.00 46 970.2
20260501211543 68 270 2.0 6.0 0.00 0.00 0.00 47 970.3
20260501211042 68 271 1.0 9.0 0.00 0.00 0.00 46 970.2
20260501210542 68 19 1.0 5.0 0.00 0.00 0.00 46 970.3
20260501210041 68 17 1.0 5.0 0.00 0.00 0.00 46 970.3
20260501205540 67 49 2.0 9.0 0.00 0.00 0.00 46 970.4
20260501205040 68 44 3.0 9.0 0.00 0.00 0.00 46 970.4
20260501204540 68 59 2.0 9.0 0.00 0.00 0.00 45 970.4
20260501204040 68 28 1.0 8.0 0.00 0.00 0.00 47 970.4
20260501203538 68 85 3.0 8.0 0.00 0.00 0.00 45 970.5
20260501203053 68 26 3.0 11.0 0.00 0.00 0.00 44 970.5
20260501202537 68 9 4.0 11.0 0.00 0.00 0.00 44 970.6
20260501202037 69 47 2.0 8.0 0.00 0.00 0.00 43 970.7
20260501201536 69 275 1.0 7.0 0.00 0.00 0.00 41 970.7
20260501201034 69 271 2.0 7.0 0.00 0.00 0.00 38 970.8
20260501200537 70 271 1.0 7.0 0.00 0.00 0.00 37 970.9
20260501200035 70 271 4.0 7.0 0.00 0.00 0.00 38 971.1
20260501195533 70 38 1.0 7.0 0.00 0.00 0.00 39 971.0
20260501195032 70 51 1.0 4.0 0.00 0.00 0.00 37 971.2
20260501194532 71 50 2.0 4.0 0.00 0.00 0.00 38 971.3
20260501194030 70 271 1.0 4.0 0.00 0.00 0.00 40 971.4
20260501193529 69 270 0.0 9.0 0.00 0.00 0.00 45 971.5
20260501193028 69 270 2.0 9.0 0.00 0.00 0.00 40 971.6
20260501192527 70 270 1.0 6.0 0.00 0.00 0.00 46 971.7
20260501192026 69 360 2.0 8.0 0.00 0.00 0.00 44 971.8
20260501191525 68 360 2.0 10.0 0.00 0.00 0.00 48 972.0
20260501191024 68 197 4.0 10.0 0.00 0.00 0.00 45 972.2
20260501190523 68 13 2.0 7.0 0.00 0.00 0.00 47 972.3
20260501190030 68 213 1.0 9.0 0.00 0.00 0.00 47 972.3
20260501185521 67 34 1.0 8.0 0.00 0.00 0.00 47 972.4
20260501185021 68 271 2.0 11.0 0.00 0.00 0.00 50 972.4
20260501184547 67 270 2.0 11.0 0.00 0.00 0.00 49 972.5
20260501184019 67 5 3.0 10.0 0.00 0.00 0.00 47 972.6
20260501183521 67 360 4.0 10.0 0.00 0.00 0.00 45 972.7
20260501183018 67 271 3.0 8.0 0.00 0.00 0.00 48 972.7
20260501182517 67 62 2.0 8.0 0.00 0.00 0.00 46 972.8
20260501182016 67 252 1.0 8.0 0.00 0.00 0.00 47 972.8
20260501181516 67 271 1.0 10.0 0.00 0.00 0.00 47 973.0
20260501181015 66 275 1.0 10.0 0.00 0.00 0.00 47 973.0
20260501180517 67 270 2.0 8.0 0.00 0.00 0.00 48 973.2
20260501180019 66 29 1.0 8.0 0.00 0.00 0.00 49 973.2
20260501175512 66 5 1.0 8.0 0.00 0.00 0.00 48 973.4
20260501175012 66 5 2.0 8.0 0.00 0.00 0.00 50 973.5
20260501174512 66 271 2.0 7.0 0.00 0.00 0.00 46 973.5
20260501174012 65 266 2.0 5.0 0.00 0.00 0.00 48 973.4
20260501173510 65 271 3.0 7.0 0.00 0.00 0.00 44 973.6
20260501173009 65 245 2.0 7.0 0.00 0.00 0.00 50 973.8
20260501172508 65 271 1.0 7.0 0.00 0.00 0.00 44 973.8
20260501172011 65 19 2.0 10.0 0.00 0.00 0.00 46 973.9
20260501171509 65 43 3.0 10.0 0.00 0.00 0.00 45 973.9
20260501171005 65 270 2.0 6.0 0.00 0.00 0.00 47 974.0
20260501170503 64 271 2.0 6.0 0.00 0.00 0.00 47 974.1
20260501170002 63 21 1.0 6.0 0.00 0.00 0.00 46 974.3
20260501165505 62 233 2.0 5.0 0.00 0.00 0.00 52 974.3
20260501165003 63 256 1.0 6.0 0.00 0.00 0.00 50 974.4
20260501164503 63 15 2.0 6.0 0.00 0.00 0.00 50 974.5
20260501164103 62 5 1.0 9.0 0.00 0.00 0.00 49 974.5
20260501163602 63 274 3.0 9.0 0.00 0.00 0.00 50 974.7
20260501163058 62 267 3.0 8.0 0.00 0.00 0.00 49 974.8
20260501162557 62 263 1.0 7.0 0.00 0.00 0.00 51 974.9
20260501162056 62 23 3.0 7.0 0.00 0.00 0.00 52 974.9
20260501161556 62 272 1.0 9.0 0.00 0.00 0.00 53 974.9
20260501161054 62 26 1.0 9.0 0.00 0.00 0.00 53 975.0
20260501160554 62 31 1.0 6.0 0.00 0.00 0.00 52 975.0
20260501160053 62 22 3.0 6.0 0.00 0.00 0.00 52 975.2
20260501155552 61 13 1.0 6.0 0.00 0.00 0.00 53 975.2
20260501155052 61 13 3.0 8.0 0.00 0.00 0.00 54 975.3
20260501154553 60 229 1.0 9.0 0.00 0.00 0.00 58 975.4
20260501154050 60 258 3.0 9.0 0.00 0.00 0.00 54 975.4
20260501153551 60 11 0.0 8.0 0.00 0.00 0.00 54 975.5
20260501153049 60 270 1.0 8.0 0.00 0.00 0.00 53 975.5
20260501152549 60 263 1.0 6.0 0.00 0.00 0.00 53 975.6
20260501152049 59 5 1.0 5.0 0.00 0.00 0.00 52 975.7
20260501151548 59 28 0.0 7.0 0.00 0.00 0.00 56 975.8
20260501151147 59 28 2.0 7.0 0.00 0.00 0.00 54 975.8
20260501150546 59 41 3.0 8.0 0.00 0.00 0.00 54 975.9
20260501150047 59 271 1.0 5.0 0.00 0.00 0.00 55 975.8
20260501145546 58 226 1.0 5.0 0.00 0.00 0.00 55 975.8
20260501145042 58 241 2.0 5.0 0.00 0.00 0.00 55 975.9
20260501144546 58 21 0.0 4.0 0.00 0.00 0.00 55 976.0
20260501144042 58 28 1.0 6.0 0.00 0.00 0.00 54 976.0
20260501143541 58 61 1.0 5.0 0.00 0.00 0.00 54 976.1
20260501143040 57 5 1.0 4.0 0.00 0.00 0.00 56 976.1